Regional Weather Roundup
Issued by NWS

Home | Current Version | Previous Version | Graphics & Text | Print | Product List | Glossary On
Versions: 1 2 3 4 5 6 7 8 9 10 11 12 13 14 15 16 17 18 19 20 21 22 23 24 25 26 27 28 29 30 31 32 33 34 35 36 37 38 39 40 41 42 43 44 45 46 47 48 49 50
000
ASUS43 KMPX 301310
RWRMN
WEATHER ROUNDUP FOR MINNESOTA
NATIONAL WEATHER SERVICE TWIN CITIES/CHANHASSEN MN
800 AM CDT MON MAR 30 2015


NOTE: "FAIR" INDICATES FEW OR NO CLOUDS BELOW 12,000 FEET WITH NO
SIGNIFICANT WEATHER AND/OR OBSTRUCTIONS TO VISIBILITY. N/A MEANS
CURRENT SKY AND/OR WEATHER CONDITIONS ARE NOT AVAILABLE.

MNZ060>063-068>070-301400-
   Twin Cities Metro

CITY           SKY/WX    TMP DP  RH WIND       PRES   REMARKS
TWIN CITIES    CLOUDY    40  27  59 SW3       29.97F
ST PAUL        CLOUDY    39  28  64 CALM      29.98F
CRYSTAL        PTSUNNY   40  27  59 CALM      29.95F
BLAINE         PTSUNNY   39  30  70 SW3       29.96S
LAKEVILLE      CLOUDY    36  27  69 CALM      29.97F
EDEN PRAIRIE   PTSUNNY   36  28  73 SW5       29.96F
SOUTH ST PAUL  CLOUDY    40  28  60 CALM      29.97S
LAKE ELMO      CLOUDY    37  32  81 SW5       29.98S
$$
MNZ001>005-007-008-013>017-022>024-027-028-301400-
   Northwest Minnesota

CITY           SKY/WX    TMP DP  RH WIND       PRES   REMARKS
BEMIDJI        MOCLDY    31  29  91 CALM      29.89F
HALLOCK        DRIZZLE   36  32  87 S3        29.89R
ROSEAU         CLOUDY    34  28  80 CALM      29.87S
WARROAD        CLOUDY    32  28  86 SW3       29.88R
THIEF RVR FALL CLOUDY    34  30  86 CALM      29.89S
CROOKSTON      CLOUDY    34  30  86 SE6       29.89S WCI  29
FOSSTON        CLOUDY    32  30  93 CALM      29.89S
DETROIT LAKES  CLOUDY    34  32  93 S3        29.90S
MOORHEAD       CLOUDY    36  34  93 SE7       29.89F
PARK RAPIDS    CLOUDY    35  30  82 CALM      29.89F
MAHNOMEN       CLOUDY    33  30  90 S5        29.89S WCI  28
$$
MNZ006-009>011-018-025>026-301400-
   North Central Minnesota

CITY           SKY/WX    TMP DP  RH WIND       PRES   REMARKS
BAUDETTE       MOCLDY    30  27  88 CALM      29.87S
FLAG ISLAND    PTCLDY    28  27  93 SE3       29.86S
INTL FALLS     CLEAR     27  24  89 CALM      29.87F
WASKISH        MOCLDY    30  28  93 CALM      29.89S
BIG FORK       PTCLDY    30  28  93 CALM      29.89S
LONGVILLE      PTCLDY    28  28 100 CALM      29.90F
GRAND RAPIDS   PTCLDY    28  25  86 CALM      29.90S
CRANE LAKE     SUNNY     21  21 100 CALM      29.90S
ORR            SUNNY     27  21  80 CALM      29.86F
COOK           SUNNY     27  25  93 CALM      29.89S
WALKER         CLOUDY    31  28  88 CALM      29.89F
$$
MNZ012-019>021-037-301400-
   Northeast Minnesota

CITY           SKY/WX    TMP DP  RH WIND       PRES   REMARKS
DULUTH         SUNNY     34  26  72 W7        29.89R WCI  28
ELY            SUNNY     28  25  86 W3        29.88S
HIBBING        MOSUNNY   27  22  81 CALM      29.89S
EVELETH        SUNNY     30  27  86 CALM      29.90S
DULUTH HARBOR  SUNNY     34  28  80 CALM      29.93S
TWO HARBORS    SUNNY     39  28  65 W6        29.88R
SILVER BAY     SUNNY     37  25  60 CALM      29.86S
GRAND MARAIS     N/A     34  27  75 SE3       29.88R
G MARAIS ARPRT PTSUNNY   28  21  74 W7        29.83R WCI  21
$$
MNZ029>031-032-039>041-046>048-054>057-064-301400-
   West Central Minnesota

CITY           SKY/WX    TMP DP  RH WIND       PRES   REMARKS
FERGUS FALLS   CLOUDY    36  27  69 SE5       29.92F
WHEATON        CLOUDY    34  28  80 SE6       29.91F WCI  29
MORRIS         CLOUDY    34  30  86 E7        29.90F WCI  28
ALEXANDRIA     CLOUDY    35  28  75 CALM      29.92F
ELBOW LAKE     CLOUDY    33  28  82 E6        29.89F WCI  28
WADENA         CLOUDY    34  28  80 CALM      29.90F
GLENWOOD       CLOUDY    34  28  80 CALM      29.93F
APPLETON       CLOUDY    37  28  70 SE5       29.92F
BENSON         CLOUDY    34  28  80 S5        29.92F WCI  30
ORTONVILLE     CLOUDY    37  27  65 SE8       29.89F
MADISON        CLOUDY    39  28  65 S5        29.91F
WILLMAR        FAIR      34  28  80 SE3       29.94F
$$
MNZ033>034-036-042>043-049>051-058-059-301400-
   Central Minnesota

CITY           SKY/WX    TMP DP  RH WIND       PRES   REMARKS
ST CLOUD       CLOUDY    33  28  81 CALM      29.95R
SAUK CENTRE    CLOUDY    33  30  88 CALM      29.94S
PAYNESVILLE    CLOUDY    30  27  88 CALM      29.94S
AITKIN         PTCLDY    34  28  80 CALM      29.90S
PINE RIVER     MOCLDY    30  28  93 CALM      29.94F
BRAINERD       CLOUDY    32  28  85 S3        29.92S
STAPLES        CLOUDY    32  28  86 CALM      29.91F
LONG PRAIRIE   CLOUDY    32  30  93 CALM      29.93F
LITTLE FALLS   CLOUDY    32  30  93 CALM      29.94S
LITCHFIELD     MOCLDY    37  27  65 CALM      29.95S
BUFFALO        CLOUDY    36  28  75 CALM      29.96F
MAPLE LAKE     CLOUDY    37  31  77 CALM      29.95F
$$
MNZ037-044-045-052-053-301400-
   East Central Minnesota

CITY           SKY/WX    TMP DP  RH WIND       PRES   REMARKS
PRINCETON      CLOUDY    36  30  80 CALM      29.95R
MORA           MOSUNNY   30  27  86 CALM      29.95F
CAMBRIDGE      CLOUDY    37  27  65 CALM      29.93S
RUSH CITY      MOSUNNY   34  27  77 CALM      29.94F
MOOSE LAKE     MOSUNNY   30  27  86 CALM      29.91S
HINCKLEY       FAIR      32  28  86 CALM      29.93F
CLOQUET        SUNNY     34  27  75 W5        29.91R WCI  30
MCGREGOR       PTCLDY    28  27  93 CALM      29.92S
$$
MNZ071>073-080-081-089-090-097-098-301400-
   Southwest Minnesota

CITY           SKY/WX    TMP DP  RH WIND       PRES   REMARKS
MONTEVIDEO     MOCLDY    36  28  75 S6        29.94F
GRANITE FALLS  MOCLDY    37  27  66 SE5       29.95F
CANBY          MOCLDY    46  24  42 SW13      29.92F
MARSHALL       CLOUDY    43  23  45 S10       29.95S
REDWOOD FALLS  CLOUDY    41  27  57 CALM      29.96S
OLIVIA         MOCLDY    32  30  93 CALM      29.95F
PIPESTONE      CLEAR     36  21  55 S6        29.97S
WINDOM         PTCLDY    39  25  56 CALM      29.99F
WORTHINGTON    MOCLDY    39  21  48 SW13      30.00F
JACKSON        CLOUDY    41  23  48 SW8       30.00F
TRACY          CLOUDY    44  25  47 SW13      29.96F
SLAYTON        PTCLDY    38  20  48 SW10      29.97F
$$
MNZ065>067-074>077-082>085-091>093-301400-
   South Central Minnesota

CITY           SKY/WX    TMP DP  RH WIND       PRES   REMARKS
MANKATO        FAIR      39  25  56 SW5       29.98F
NEW ULM        MOCLDY    37  27  65 SW3       29.97F
ST JAMES       MOCLDY    45  25  45 SW6       29.99F
FAIRMONT       CLOUDY    41  23  48 SW12      29.99F
GLENCOE        PTCLDY    36  31  82 SW3       29.96F
FARIBAULT      MOSUNNY   36  28  75 CALM      29.99F
OWATONNA       MOSUNNY   36  28  75 SW6       30.00S
WASECA         SUNNY     34  28  80 SW6       30.01S WCI  29
ALBERT LEA     PTSUNNY   45  25  45 SW10      30.00S
$$
MNZ078>079-086>088-094>096-301400-
   Southeast Minnesota

CITY           SKY/WX    TMP DP  RH WIND       PRES   REMARKS
ROCHESTER      MOSUNNY   37  28  70 W13       30.00S
RED WING       MOSUNNY   36  30  80 CALM      29.98S
STANTON        CLOUDY    35  30  80 S3        29.98S
DODGE CENTER   MOSUNNY   37  30  75 W8        29.99S
WINONA         MOSUNNY   34  32  93 CALM      30.01S
AUSTIN         FAIR      39  27  60 SW8       30.00S
PRESTON        SUNNY     38  27  65 W12       30.01S
$$
ABBREVIATIONS USED IN REMARKS
   TC - TEMPERATURES IN CELSIUS
  WCI - WIND CHILL INDEX
   HX - HEAT INDEX
  VSB - VISIBILITY
$$


USA.gov is the U.S. government's official web portal to all federal, state and local government web resources and services.